Location: Unspecified
(0.0000°N, 0.0000°E)
Time: 09:46:18
(UTC+00:00)

Transit 4B - Pass Details

Date: 17 August 2024
Orbit: 947 x 1097 km, 32.4° (Epoch: 07 September)

Event Time Altitude Azimuth Distance (km) Brightness Sun altitude
Rises 19:55:43 0° 323° (NW) 3,639 12.2 -27.2°
Reaches altitude 10° 19:58:45 10° 335° (NNW) 2,676 11.3 -27.9°
Enters shadow 20:03:25 28° 20° (NNE) 1,702 9.7 -29.0°
